,,,PA_Meas_PMT16A,,PR_Meas_QMR101_102,,RH_Meas_QMH101,,SR_Meas_QMS101,,TA_Meas_QMH101,,GenWind,,GenWind,
date,time,status,PA,status,PR,status,RH,status,SR,status,TA,status,DirAvg,status,SpdAvg,
2011-02-14, 00:00:05,VALID,1008.77,VALID,0,VALID,100.416,VALID,0,VALID,24.2378,VALID,300,VALID,0.316406,
2011-02-14, 00:01:05,VALID,1008.76,VALID,0,VALID,100.401,VALID,0,VALID,24.2396,VALID,300,VALID,0.396875,
2011-02-14, 00:02:05,VALID,1008.76,VALID,0,VALID,100.439,VALID,0.105969,VALID,24.1793,VALID,300,VALID,0.298828,
2011-02-14, 00:03:05,VALID,1008.77,VALID,0,VALID,100.576,VALID,0.105969,VALID,24.1599,VALID,300,VALID,0.236328,
2011-02-14, 00:04:05,VALID,1008.74,VALID,0,VALID,100.652,VALID,0,VALID,24.1209,VALID,300,VALID,0,
2011-02-14, 00:05:05,VALID,1008.73,VALID,0,VALID,100.797,VALID,0,VALID,24.1209,VALID,300,VALID,0,
2011-02-14, 00:06:05,VALID,1008.71,VALID,0,VALID,100.896,VALID,0.105969,VALID,24.1227,VALID,300,VALID,0.135547,
2011-02-14, 00:07:05,VALID,1008.71,VALID,0,VALID,100.912,VALID,0,VALID,24.1209,VALID,300,VALID,0.199219,
2011-02-14, 00:08:05,VALID,1008.66,VALID,0,VALID,100.896,VALID,0.105969,VALID,24.1209,VALID,300,VALID,0,
2011-02-14, 00:09:05,VALID,1008.63,VALID,0,VALID,100.904,VALID,0.105969,VALID,24.1404,VALID,300,VALID,0,
2011-02-14, 00:10:05,VALID,1008.65,VALID,0,VALID,100.774,VALID,0,VALID,24.1209,VALID,300,VALID,0.120312,
2011-02-14, 00:11:05,VALID,1008.63,VALID,0,VALID,100.805,VALID,0,VALID,24.1422,VALID,300,VALID,0,
2011-02-14, 00:12:05,VALID,1008.61,VALID,0,VALID,100.843,VALID,0,VALID,24.0819,VALID,300,VALID,0.380469,
2011-02-14, 00:13:05,VALID,1008.56,VALID,0,VALID,100.904,VALID,0,VALID,24.0624,VALID,300,VALID,0.361719,
2011-02-14, 00:14:05,VALID,1008.57,VALID,0,VALID,101.064,VALID,0.105969,VALID,24.0643,VALID,300,VALID,0.190234,
2011-02-14, 00:15:05,VALID,1008.55,VALID,0,VALID,101.156,VALID,0.105969,VALID,24.0235,VALID,300,VALID,0.208203,
2011-02-14, 00:16:05,VALID,1008.57,VALID,0,VALID,101.301,VALID,0.105969,VALID,24.0235,VALID,300,VALID,0,
2011-02-14, 00:17:05,VALID,1008.54,VALID,0,VALID,101.43,VALID,0,VALID,23.9845,VALID,300,VALID,0,
2011-02-14, 00:18:05,VALID,1008.52,VALID,0,VALID,101.506,VALID,0.105969,VALID,23.965,VALID,300,VALID,0,
2011-02-14, 00:19:05,VALID,1008.51,VALID,0,VALID,101.628,VALID,0.105969,VALID,23.965,VALID,300,VALID,0,
2011-02-14, 00:20:05,VALID,1008.49,VALID,0,VALID,101.781,VALID,0.105969,VALID,23.9455,VALID,300,VALID,0,
2011-02-14, 00:21:05,VALID,1008.48,VALID,0,VALID,101.789,VALID,0.105969,VALID,23.9455,VALID,300,VALID,0.234766,
2011-02-14, 00:22:05,VALID,1008.48,VALID,0,VALID,101.766,VALID,0,VALID,23.9455,VALID,300,VALID,0.0785156,
2011-02-14, 00:23:05,VALID,1008.49,VALID,0,VALID,101.735,VALID,0,VALID,23.9455,VALID,300,VALID,0.115625,
2011-02-14, 00:24:05,VALID,1008.49,VALID,0,VALID,101.689,VALID,0,VALID,23.926,VALID,300,VALID,0.153125,
2011-02-14, 00:25:05,VALID,1008.47,VALID,0,VALID,101.628,VALID,0,VALID,23.9065,VALID,300,VALID,0.084375,
2011-02-14, 00:26:05,VALID,1008.48,VALID,0,VALID,101.674,VALID,0,VALID,23.8871,VALID,300,VALID,0.0589844,
2011-02-14, 00:27:05,VALID,1008.47,VALID,0,VALID,101.827,VALID,0.105969,VALID,23.8481,VALID,300,VALID,0.366016,
2011-02-14, 00:28:05,VALID,1008.46,VALID,0,VALID,101.972,VALID,0,VALID,23.8286,VALID,300,VALID,0.343359,
2011-02-14, 00:29:05,VALID,1008.46,VALID,0,VALID,102.109,VALID,0,VALID,23.8109,VALID,300,VALID,0.144531,
2011-02-14, 00:30:05,VALID,1008.46,VALID,0,VALID,102.208,VALID,0,VALID,23.7701,VALID,300,VALID,0.202734,
2011-02-14, 00:31:05,VALID,1008.43,VALID,0,VALID,102.299,VALID,0,VALID,23.7507,VALID,300,VALID,0.192188,
2011-02-14, 00:32:05,VALID,1008.43,VALID,0,VALID,102.399,VALID,0,VALID,23.7312,VALID,300,VALID,0.176563,
2011-02-14, 00:33:04,VALID,1008.43,VALID,0,VALID,102.46,VALID,0,VALID,23.7117,VALID,300,VALID,0,
2011-02-14, 00:34:04,VALID,1008.41,VALID,0,VALID,102.467,VALID,0,VALID,23.7117,VALID,300,VALID,0,
2011-02-14, 00:35:04,VALID,1008.41,VALID,0,VALID,102.559,VALID,0,VALID,23.6922,VALID,300,VALID,0,
2011-02-14, 00:36:04,VALID,1008.41,VALID,0,VALID,102.643,VALID,0.105969,VALID,23.7117,VALID,300,VALID,0,
2011-02-14, 00:37:04,VALID,1008.41,VALID,0,VALID,102.635,VALID,0.105969,VALID,23.7117,VALID,300,VALID,0,
2011-02-14, 00:38:04,VALID,1008.4,VALID,0,VALID,102.627,VALID,0,VALID,23.6727,VALID,300,VALID,0,
2011-02-14, 00:39:04,VALID,1008.37,VALID,0,VALID,102.704,VALID,0,VALID,23.6727,VALID,300,VALID,0,
2011-02-14, 00:40:04,VALID,1008.37,VALID,0,VALID,102.833,VALID,0.105969,VALID,23.6727,VALID,300,VALID,0.241406,
2011-02-14, 00:41:04,VALID,1008.34,VALID,0,VALID,102.864,VALID,0.105969,VALID,23.694,VALID,300,VALID,0.0367187,
2011-02-14, 00:42:04,VALID,1008.32,VALID,0,VALID,102.864,VALID,0.105969,VALID,23.6727,VALID,300,VALID,0,
2011-02-14, 00:43:04,VALID,1008.3,VALID,0,VALID,102.841,VALID,0.105969,VALID,23.6727,VALID,300,VALID,0,
2011-02-14, 00:44:04,VALID,1008.27,VALID,0,VALID,102.856,VALID,0.105969,VALID,23.6532,VALID,300,VALID,0,
2011-02-14, 00:45:04,VALID,1008.29,VALID,0,VALID,102.902,VALID,0.105969,VALID,23.6532,VALID,300,VALID,0,
2011-02-14, 00:46:04,VALID,1008.29,VALID,0,VALID,102.879,VALID,0,VALID,23.6532,VALID,300,VALID,0,
2011-02-14, 00:47:04,VALID,1008.29,VALID,0,VALID,102.902,VALID,0,VALID,23.6532,VALID,300,VALID,0,
2011-02-14, 00:48:04,VALID,1008.28,VALID,0,VALID,102.932,VALID,0.105969,VALID,23.6532,VALID,300,VALID,0,
2011-02-14, 00:49:04,VALID,1008.25,VALID,0,VALID,102.955,VALID,0.105969,VALID,23.6727,VALID,300,VALID,0,
2011-02-14, 00:50:04,VALID,1008.26,VALID,0,VALID,102.986,VALID,0,VALID,23.6727,VALID,300,VALID,0,
2011-02-14, 00:51:04,VALID,1008.24,VALID,0,VALID,102.986,VALID,0.105969,VALID,23.6922,VALID,300,VALID,0,
2011-02-14, 00:52:04,VALID,1008.19,VALID,0,VALID,103.001,VALID,0,VALID,23.6922,VALID,300,VALID,0.0867188,
2011-02-14, 00:53:04,VALID,1008.2,VALID,0,VALID,102.864,VALID,0,VALID,23.7117,VALID,300,VALID,0,
2011-02-14, 00:54:04,VALID,1008.2,VALID,0,VALID,102.803,VALID,0,VALID,23.6922,VALID,300,VALID,0.0144531,
2011-02-14, 00:55:04,VALID,1008.18,VALID,0,VALID,102.818,VALID,0,VALID,23.733,VALID,300,VALID,0,
2011-02-14, 00:56:04,VALID,1008.13,VALID,0,VALID,102.803,VALID,0,VALID,23.733,VALID,300,VALID,0.00429688,
2011-02-14, 00:57:04,VALID,1008.12,VALID,0,VALID,102.795,VALID,0.105969,VALID,23.7117,VALID,300,VALID,0,
2011-02-14, 00:58:04,VALID,1008.1,VALID,0,VALID,102.78,VALID,0.105969,VALID,23.7312,VALID,300,VALID,0,
2011-02-14, 00:59:04,VALID,1008.1,VALID,0,VALID,102.666,VALID,0,VALID,23.7117,VALID,300,VALID,0.00351562,
2011-02-14, 01:00:04,VALID,1008.08,VALID,0,VALID,102.597,VALID,0.105969,VALID,23.6709,VALID,300,VALID,0,
2011-02-14, 01:01:04,VALID,1008.08,VALID,0,VALID,102.528,VALID,0.105969,VALID,23.6922,VALID,300,VALID,0,
2011-02-14, 01:02:04,VALID,1008.04,VALID,0,VALID,102.688,VALID,0.105969,VALID,23.6727,VALID,300,VALID,0.0648438,
2011-02-14, 01:03:04,VALID,1008.05,VALID,0,VALID,102.81,VALID,0,VALID,23.6727,VALID,300,VALID,0.0804688,
2011-02-14, 01:04:04,VALID,1008.03,VALID,0,VALID,102.841,VALID,0,VALID,23.7117,VALID,300,VALID,0.00703125,
2011-02-14, 01:05:04,VALID,1008.02,VALID,0,VALID,102.803,VALID,0.105969,VALID,23.7117,VALID,300,VALID,0,
2011-02-14, 01:06:04,VALID,1008,VALID,0,VALID,102.666,VALID,0.105969,VALID,23.7099,VALID,300,VALID,0,
2011-02-14, 01:07:04,VALID,1008,VALID,0,VALID,102.605,VALID,0.105969,VALID,23.7117,VALID,300,VALID,0,
2011-02-14, 01:08:04,VALID,1007.97,VALID,0,VALID,102.574,VALID,0.105969,VALID,23.7117,VALID,300,VALID,0,
2011-02-14, 01:09:04,VALID,1007.99,VALID,0,VALID,102.589,VALID,0.105969,VALID,23.6922,VALID,300,VALID,0,
2011-02-14, 01:10:04,VALID,1007.98,VALID,0,VALID,102.559,VALID,0.105969,VALID,23.6515,VALID,300,VALID,0,
2011-02-14, 01:11:04,VALID,1007.98,VALID,0,VALID,102.627,VALID,0.105969,VALID,23.6727,VALID,300,VALID,0,
2011-02-14, 01:12:04,VALID,1007.97,VALID,0,VALID,102.704,VALID,0.105969,VALID,23.6727,VALID,300,VALID,0,
2011-02-14, 01:13:04,VALID,1007.96,VALID,0,VALID,102.765,VALID,0.105969,VALID,23.6532,VALID,300,VALID,0,
2011-02-14, 01:14:04,VALID,1007.97,VALID,0,VALID,102.772,VALID,0,VALID,23.6727,VALID,300,VALID,0,
2011-02-14, 01:15:04,VALID,1007.95,VALID,0,VALID,102.742,VALID,0,VALID,23.6745,VALID,300,VALID,0.122266,
2011-02-14, 01:16:04,VALID,1007.96,VALID,0,VALID,102.772,VALID,0,VALID,23.6532,VALID,300,VALID,0,
2011-02-14, 01:17:04,VALID,1007.97,VALID,0,VALID,102.757,VALID,0,VALID,23.6745,VALID,300,VALID,0.105859,
2011-02-14, 01:18:04,VALID,1007.97,VALID,0,VALID,102.696,VALID,0,VALID,23.6727,VALID,300,VALID,0.189844,
2011-02-14, 01:19:04,VALID,1007.97,VALID,0,VALID,102.513,VALID,0,VALID,23.6745,VALID,300,VALID,0,
2011-02-14, 01:20:04,VALID,1007.96,VALID,0,VALID,102.475,VALID,0,VALID,23.6532,VALID,300,VALID,0,
2011-02-14, 01:21:04,VALID,1007.93,VALID,0,VALID,102.444,VALID,0,VALID,23.655,VALID,300,VALID,0.171484,
2011-02-14, 01:22:04,VALID,1007.89,VALID,0,VALID,102.49,VALID,0,VALID,23.6356,VALID,300,VALID,0.312109,
2011-02-14, 01:23:04,VALID,1007.88,VALID,0,VALID,102.612,VALID,0,VALID,23.6161,VALID,300,VALID,0.114453,
2011-02-14, 01:24:04,VALID,1007.84,VALID,0,VALID,102.673,VALID,0,VALID,23.6161,VALID,300,VALID,0,
2011-02-14, 01:25:04,VALID,1007.86,VALID,0,VALID,102.704,VALID,0,VALID,23.5966,VALID,300,VALID,0,
2011-02-14, 01:26:04,VALID,1007.84,VALID,0,VALID,102.673,VALID,0,VALID,23.5771,VALID,300,VALID,0,
2011-02-14, 01:27:04,VALID,1007.85,VALID,0,VALID,102.673,VALID,0,VALID,23.5576,VALID,300,VALID,0,
2011-02-14, 01:28:04,VALID,1007.86,VALID,0,VALID,102.711,VALID,0,VALID,23.5186,VALID,300,VALID,0,
2011-02-14, 01:29:04,VALID,1007.89,VALID,0,VALID,102.833,VALID,0,VALID,23.5186,VALID,300,VALID,0,
2011-02-14, 01:30:04,VALID,1007.89,VALID,0,VALID,102.978,VALID,0.105969,VALID,23.4974,VALID,300,VALID,0,
2011-02-14, 01:31:04,VALID,1007.87,VALID,0,VALID,103.077,VALID,0.105969,VALID,23.4974,VALID,300,VALID,0,
2011-02-14, 01:32:04,VALID,1007.89,VALID,0,VALID,103.154,VALID,0.105969,VALID,23.4974,VALID,300,VALID,0,
2011-02-14, 01:33:04,VALID,1007.86,VALID,0,VALID,103.192,VALID,0,VALID,23.5169,VALID,300,VALID,0,
2011-02-14, 01:34:04,VALID,1007.83,VALID,0,VALID,103.138,VALID,0.105969,VALID,23.4974,VALID,300,VALID,0,
2011-02-14, 01:35:04,VALID,1007.78,VALID,0,VALID,103.077,VALID,0,VALID,23.4779,VALID,300,VALID,0,
2011-02-14, 01:36:04,VALID,1007.79,VALID,0,VALID,103.07,VALID,0,VALID,23.4584,VALID,300,VALID,0,
2011-02-14, 01:37:04,VALID,1007.77,VALID,0,VALID,103.184,VALID,0,VALID,23.4389,VALID,300,VALID,0,
2011-02-14, 01:38:04,VALID,1007.75,VALID,0,VALID,103.268,VALID,0.105969,VALID,23.4389,VALID,300,VALID,0,
2011-02-14, 01:39:04,VALID,1007.76,VALID,0,VALID,103.359,VALID,0.105969,VALID,23.4584,VALID,300,VALID,0,
2011-02-14, 01:40:04,VALID,1007.74,VALID,0,VALID,103.367,VALID,0,VALID,23.4372,VALID,300,VALID,0,
2011-02-14, 01:41:04,VALID,1007.74,VALID,0,VALID,103.375,VALID,0.105969,VALID,23.4584,VALID,300,VALID,0,
2011-02-14, 01:42:04,VALID,1007.74,VALID,0,VALID,103.405,VALID,0,VALID,23.4389,VALID,300,VALID,0,
2011-02-14, 01:43:04,VALID,1007.73,VALID,0,VALID,103.405,VALID,0.105969,VALID,23.4584,VALID,300,VALID,0,
2011-02-14, 01:44:04,VALID,1007.73,VALID,0,VALID,103.443,VALID,0,VALID,23.4797,VALID,300,VALID,0,
2011-02-14, 01:45:04,VALID,1007.68,VALID,0,VALID,103.466,VALID,0,VALID,23.4584,VALID,300,VALID,0,
2011-02-14, 01:46:04,VALID,1007.7,VALID,0,VALID,103.451,VALID,0,VALID,23.4584,VALID,300,VALID,0,
2011-02-14, 01:47:04,VALID,1007.68,VALID,0,VALID,103.413,VALID,0.105969,VALID,23.4584,VALID,300,VALID,0,
2011-02-14, 01:48:04,VALID,1007.69,VALID,0,VALID,103.375,VALID,0.105969,VALID,23.4584,VALID,300,VALID,0,
2011-02-14, 01:49:04,VALID,1007.68,VALID,0,VALID,103.382,VALID,0,VALID,23.4584,VALID,300,VALID,0,
2011-02-14, 01:50:04,VALID,1007.66,VALID,0,VALID,103.413,VALID,0.105969,VALID,23.4584,VALID,300,VALID,0,
2011-02-14, 01:51:04,VALID,1007.65,VALID,0,VALID,103.428,VALID,0.105969,VALID,23.4584,VALID,300,VALID,0,
2011-02-14, 01:52:04,VALID,1007.65,VALID,0,VALID,103.42,VALID,0.105969,VALID,23.4779,VALID,300,VALID,0,
2011-02-14, 01:53:04,VALID,1007.67,VALID,0,VALID,103.405,VALID,0.105969,VALID,23.4779,VALID,300,VALID,0.0582031,
2011-02-14, 01:54:04,VALID,1007.64,VALID,0,VALID,103.428,VALID,0.105969,VALID,23.4779,VALID,300,VALID,0,
2011-02-14, 01:55:04,VALID,1007.65,VALID,0,VALID,103.413,VALID,0.105969,VALID,23.4974,VALID,300,VALID,0,
2011-02-14, 01:56:04,VALID,1007.63,VALID,0,VALID,103.405,VALID,0.105969,VALID,23.4974,VALID,300,VALID,0.0210938,
2011-02-14, 01:57:04,VALID,1007.64,VALID,0,VALID,103.344,VALID,0.105969,VALID,23.4974,VALID,300,VALID,0.128906,
2011-02-14, 01:58:04,VALID,1007.64,VALID,0,VALID,103.321,VALID,0,VALID,23.4974,VALID,300,VALID,0.196094,
2011-02-14, 01:59:04,VALID,1007.64,VALID,0,VALID,103.329,VALID,0.105969,VALID,23.4974,VALID,291,VALID,0.35,
2011-02-14, 02:00:04,VALID,1007.59,VALID,0,VALID,103.253,VALID,0,VALID,23.5186,VALID,291,VALID,0.290234,
2011-02-14, 02:01:04,VALID,1007.57,VALID,0,VALID,103.199,VALID,0,VALID,23.5186,VALID,291,VALID,0.269922,
2011-02-14, 02:02:04,VALID,1007.57,VALID,0,VALID,103.108,VALID,0,VALID,23.4992,VALID,291,VALID,0.217578,
2011-02-14, 02:03:04,VALID,1007.54,VALID,0,VALID,103.1,VALID,0,VALID,23.4992,VALID,291,VALID,0.0523437,
2011-02-14, 02:04:04,VALID,1007.54,VALID,0,VALID,103.093,VALID,0,VALID,23.4797,VALID,291,VALID,0,
2011-02-14, 02:05:04,VALID,1007.52,VALID,0,VALID,103.199,VALID,0,VALID,23.4602,VALID,291,VALID,0,
2011-02-14, 02:06:04,VALID,1007.51,VALID,0,VALID,103.222,VALID,0,VALID,23.4797,VALID,291,VALID,0.0757812,
2011-02-14, 02:07:04,VALID,1007.53,VALID,0,VALID,103.207,VALID,0,VALID,23.4389,VALID,302,VALID,0.35625,
2011-02-14, 02:08:04,VALID,1007.53,VALID,0,VALID,103.222,VALID,0,VALID,23.4797,VALID,320,VALID,0.225391,
2011-02-14, 02:09:04,VALID,1007.52,VALID,0,VALID,103.222,VALID,0,VALID,23.4797,VALID,320,VALID,0.162109,
2011-02-14, 02:10:04,VALID,1007.55,VALID,0,VALID,103.161,VALID,0,VALID,23.4602,VALID,320,VALID,0.0304688,
2011-02-14, 02:11:04,VALID,1007.53,VALID,0,VALID,103.115,VALID,0,VALID,23.4602,VALID,320,VALID,0,
2011-02-14, 02:12:04,VALID,1007.55,VALID,0,VALID,103.093,VALID,0,VALID,23.4389,VALID,320,VALID,0,
2011-02-14, 02:13:04,VALID,1007.54,VALID,0,VALID,103.054,VALID,0,VALID,23.4212,VALID,320,VALID,0,
2011-02-14, 02:14:04,VALID,1007.57,VALID,0,VALID,103.161,VALID,0,VALID,23.4,VALID,320,VALID,0.0453125,
2011-02-14, 02:15:04,VALID,1007.58,VALID,0,VALID,103.169,VALID,0,VALID,23.4017,VALID,320,VALID,0.0757812,
2011-02-14, 02:16:04,VALID,1007.61,VALID,0,VALID,103.199,VALID,0,VALID,23.3805,VALID,320,VALID,0.419922,
2011-02-14, 02:17:04,VALID,1007.59,VALID,0,VALID,103.215,VALID,0,VALID,23.3823,VALID,320,VALID,0,
2011-02-14, 02:18:04,VALID,1007.59,VALID,0,VALID,103.215,VALID,0,VALID,23.3628,VALID,320,VALID,0.296875,
2011-02-14, 02:19:04,VALID,1007.57,VALID,0,VALID,103.23,VALID,0,VALID,23.3823,VALID,333,VALID,0.214062,
2011-02-14, 02:20:04,VALID,1007.58,VALID,0,VALID,103.276,VALID,0,VALID,23.3628,VALID,333,VALID,0.505859,
2011-02-14, 02:21:04,VALID,1007.55,VALID,0,VALID,103.268,VALID,0,VALID,23.3433,VALID,333,VALID,0.337109,
2011-02-14, 02:22:04,VALID,1007.56,VALID,0,VALID,103.306,VALID,0,VALID,23.3238,VALID,333,VALID,0.0105469,
2011-02-14, 02:23:04,VALID,1007.54,VALID,0,VALID,103.352,VALID,0,VALID,23.3238,VALID,333,VALID,0,
2011-02-14, 02:24:04,VALID,1007.54,VALID,0,VALID,103.375,VALID,0,VALID,23.3043,VALID,333,VALID,0,
2011-02-14, 02:25:04,VALID,1007.55,VALID,0,VALID,103.436,VALID,0,VALID,23.3043,VALID,333,VALID,0,
2011-02-14, 02:26:04,VALID,1007.54,VALID,0,VALID,103.481,VALID,0,VALID,23.3043,VALID,333,VALID,0,
2011-02-14, 02:27:04,VALID,1007.53,VALID,0,VALID,103.497,VALID,0,VALID,23.3043,VALID,333,VALID,0,
2011-02-14, 02:28:04,VALID,1007.52,VALID,0,VALID,103.451,VALID,0,VALID,23.2848,VALID,333,VALID,0,
2011-02-14, 02:29:04,VALID,1007.48,VALID,0,VALID,103.474,VALID,0,VALID,23.2848,VALID,333,VALID,0,
2011-02-14, 02:30:04,VALID,1007.45,VALID,0,VALID,103.466,VALID,0.105969,VALID,23.2636,VALID,333,VALID,0,
2011-02-14, 02:31:04,VALID,1007.46,VALID,0,VALID,103.497,VALID,0.105969,VALID,23.2636,VALID,333,VALID,0.145703,
2011-02-14, 02:32:04,VALID,1007.44,VALID,0,VALID,103.497,VALID,0.105969,VALID,23.2441,VALID,333,VALID,0,
2011-02-14, 02:33:04,VALID,1007.44,VALID,0,VALID,103.55,VALID,0.105969,VALID,23.2246,VALID,333,VALID,0,
2011-02-14, 02:34:04,VALID,1007.44,VALID,0,VALID,103.573,VALID,0.105969,VALID,23.2246,VALID,333,VALID,0,
2011-02-14, 02:35:04,VALID,1007.44,VALID,0,VALID,103.596,VALID,0.105969,VALID,23.2051,VALID,333,VALID,0,
2011-02-14, 02:36:04,VALID,1007.43,VALID,0,VALID,103.596,VALID,0.105969,VALID,23.2051,VALID,333,VALID,0,
2011-02-14, 02:37:04,VALID,1007.4,VALID,0,VALID,103.642,VALID,0.105969,VALID,23.2051,VALID,333,VALID,0,
2011-02-14, 02:38:04,VALID,1007.42,VALID,0,VALID,103.664,VALID,0,VALID,23.1857,VALID,333,VALID,0,
2011-02-14, 02:39:04,VALID,1007.4,VALID,0,VALID,103.703,VALID,0,VALID,23.1662,VALID,333,VALID,0,
2011-02-14, 02:40:04,VALID,1007.38,VALID,0,VALID,103.741,VALID,0.105969,VALID,23.1857,VALID,333,VALID,0,
2011-02-14, 02:41:04,VALID,1007.38,VALID,0,VALID,103.771,VALID,0.105969,VALID,23.1662,VALID,333,VALID,0,
2011-02-14, 02:42:04,VALID,1007.33,VALID,0,VALID,103.787,VALID,0.105969,VALID,23.1662,VALID,333,VALID,0,
2011-02-14, 02:43:04,VALID,1007.31,VALID,0,VALID,103.787,VALID,0.105969,VALID,23.1662,VALID,333,VALID,0,
2011-02-14, 02:44:04,VALID,1007.32,VALID,0,VALID,103.825,VALID,0,VALID,23.1662,VALID,333,VALID,0,
2011-02-14, 02:45:04,VALID,1007.29,VALID,0,VALID,103.84,VALID,0.105969,VALID,23.1662,VALID,333,VALID,0,
2011-02-14, 02:46:04,VALID,1007.29,VALID,0,VALID,103.863,VALID,0.105969,VALID,23.1662,VALID,333,VALID,0,
2011-02-14, 02:47:04,VALID,1007.25,VALID,0,VALID,103.878,VALID,0.105969,VALID,23.1662,VALID,333,VALID,0,
2011-02-14, 02:48:04,VALID,1007.24,VALID,0,VALID,103.893,VALID,0.105969,VALID,23.1857,VALID,333,VALID,0,
2011-02-14, 02:49:04,VALID,1007.23,VALID,0,VALID,103.916,VALID,0.105969,VALID,23.1857,VALID,333,VALID,0,
2011-02-14, 02:50:04,VALID,1007.24,VALID,0,VALID,103.939,VALID,0.105969,VALID,23.2051,VALID,333,VALID,0,
2011-02-14, 02:51:04,VALID,1007.23,VALID,0,VALID,103.916,VALID,0.105969,VALID,23.2246,VALID,333,VALID,0.0628906,
2011-02-14, 02:52:04,VALID,1007.22,VALID,0,VALID,103.916,VALID,0.105969,VALID,23.2441,VALID,333,VALID,0.157813,
2011-02-14, 02:53:04,VALID,1007.19,VALID,0,VALID,103.931,VALID,0,VALID,23.2441,VALID,333,VALID,0.096875,
2011-02-14, 02:54:04,VALID,1007.21,VALID,0,VALID,103.886,VALID,0.105969,VALID,23.2636,VALID,333,VALID,0,
2011-02-14, 02:55:04,VALID,1007.23,VALID,0,VALID,103.848,VALID,0,VALID,23.2441,VALID,333,VALID,0.00898437,
2011-02-14, 02:56:04,VALID,1007.2,VALID,0,VALID,103.802,VALID,0.105969,VALID,23.2246,VALID,333,VALID,0.332422,
2011-02-14, 02:57:04,VALID,1007.24,VALID,0,VALID,103.779,VALID,0.105969,VALID,23.2246,VALID,333,VALID,0.0425781,
2011-02-14, 02:58:04,VALID,1007.21,VALID,0,VALID,103.748,VALID,0.105969,VALID,23.2051,VALID,333,VALID,0,
2011-02-14, 02:59:04,VALID,1007.19,VALID,0,VALID,103.726,VALID,0.105969,VALID,23.1857,VALID,333,VALID,0.116406,
2011-02-14, 03:00:04,VALID,1007.21,VALID,0,VALID,103.71,VALID,0,VALID,23.1679,VALID,333,VALID,0.164063,
2011-02-14, 03:01:04,VALID,1007.22,VALID,0,VALID,103.718,VALID,0,VALID,23.1679,VALID,333,VALID,0.254297,
2011-02-14, 03:02:04,VALID,1007.18,VALID,0,VALID,103.718,VALID,0,VALID,23.1679,VALID,333,VALID,0.179688,
2011-02-14, 03:03:04,VALID,1007.2,VALID,0,VALID,103.756,VALID,0,VALID,23.1485,VALID,333,VALID,0.175781,
2011-02-14, 03:04:04,VALID,1007.21,VALID,0,VALID,103.794,VALID,0,VALID,23.1485,VALID,333,VALID,0.202344,
2011-02-14, 03:05:04,VALID,1007.23,VALID,0,VALID,103.825,VALID,0,VALID,23.129,VALID,333,VALID,0,
2011-02-14, 03:06:04,VALID,1007.23,VALID,0,VALID,103.848,VALID,0,VALID,23.1095,VALID,333,VALID,0,
2011-02-14, 03:07:04,VALID,1007.2,VALID,0,VALID,103.863,VALID,0,VALID,23.1095,VALID,333,VALID,0,
2011-02-14, 03:08:04,VALID,1007.15,VALID,0,VALID,103.848,VALID,0,VALID,23.09,VALID,333,VALID,0,
2011-02-14, 03:09:04,VALID,1007.15,VALID,0,VALID,103.863,VALID,0,VALID,23.09,VALID,333,VALID,0,
2011-02-14, 03:10:04,VALID,1007.13,VALID,0,VALID,103.87,VALID,0,VALID,23.0705,VALID,333,VALID,0,
2011-02-14, 03:11:04,VALID,1007.11,VALID,0,VALID,103.855,VALID,0,VALID,23.0511,VALID,333,VALID,0,
2011-02-14, 03:12:04,VALID,1007.11,VALID,0,VALID,103.87,VALID,0,VALID,23.0103,VALID,333,VALID,0,
2011-02-14, 03:13:04,VALID,1007.1,VALID,0,VALID,103.916,VALID,0,VALID,23.0121,VALID,333,VALID,0,
2011-02-14, 03:14:04,VALID,1007.14,VALID,0,VALID,103.939,VALID,0,VALID,23.0121,VALID,333,VALID,0,
2011-02-14, 03:15:04,VALID,1007.17,VALID,0,VALID,103.985,VALID,0,VALID,22.9926,VALID,333,VALID,0,
2011-02-14, 03:16:04,VALID,1007.14,VALID,0,VALID,104,VALID,0,VALID,22.9926,VALID,333,VALID,0,
2011-02-14, 03:17:04,VALID,1007.18,VALID,0,VALID,104,VALID,0,VALID,22.9926,VALID,333,VALID,0,
2011-02-14, 03:18:04,VALID,1007.17,VALID,0,VALID,104,VALID,0,VALID,22.9731,VALID,333,VALID,0,
2011-02-14, 03:19:04,VALID,1007.19,VALID,0,VALID,104,VALID,0,VALID,22.9536,VALID,333,VALID,0,
2011-02-14, 03:20:04,VALID,1007.17,VALID,0,VALID,104,VALID,0,VALID,22.9536,VALID,333,VALID,0,
2011-02-14, 03:21:04,VALID,1007.18,VALID,0,VALID,104,VALID,0,VALID,22.9342,VALID,333,VALID,0,
2011-02-14, 03:22:04,VALID,1007.15,VALID,0,VALID,104,VALID,0,VALID,22.9536,VALID,333,VALID,0,
2011-02-14, 03:23:04,VALID,1007.19,VALID,0,VALID,104,VALID,0,VALID,22.9342,VALID,333,VALID,0,
2011-02-14, 03:24:04,VALID,1007.17,VALID,0,VALID,104,VALID,0,VALID,22.8935,VALID,333,VALID,0,
2011-02-14, 03:25:04,VALID,1007.16,VALID,0,VALID,104,VALID,0,VALID,22.9342,VALID,333,VALID,0,
2011-02-14, 03:26:04,VALID,1007.14,VALID,0,VALID,104,VALID,0,VALID,22.9342,VALID,333,VALID,0,
2011-02-14, 03:27:04,VALID,1007.16,VALID,0,VALID,104,VALID,0,VALID,22.9342,VALID,333,VALID,0,
2011-02-14, 03:28:04,VALID,1007.16,VALID,0,VALID,104,VALID,0,VALID,22.9147,VALID,333,VALID,0,
2011-02-14, 03:29:04,VALID,1007.14,VALID,0,VALID,104,VALID,0,VALID,22.9129,VALID,333,VALID,0,
2011-02-14, 03:30:04,VALID,1007.16,VALID,0,VALID,104,VALID,0,VALID,22.9342,VALID,333,VALID,0,
2011-02-14, 03:31:04,VALID,1007.15,VALID,0,VALID,104,VALID,0,VALID,22.9147,VALID,333,VALID,0,
2011-02-14, 03:32:04,VALID,1007.15,VALID,0,VALID,104,VALID,0,VALID,22.9147,VALID,333,VALID,0,
2011-02-14, 03:33:04,VALID,1007.16,VALID,0,VALID,104,VALID,0,VALID,22.9147,VALID,333,VALID,0,
2011-02-14, 03:34:04,VALID,1007.16,VALID,0,VALID,104,VALID,0,VALID,22.9342,VALID,333,VALID,0,
2011-02-14, 03:35:04,VALID,1007.12,VALID,0,VALID,104,VALID,0,VALID,22.9147,VALID,333,VALID,0,
2011-02-14, 03:36:04,VALID,1007.15,VALID,0,VALID,104,VALID,0,VALID,22.9342,VALID,333,VALID,0,
2011-02-14, 03:37:04,VALID,1007.1,VALID,0,VALID,104,VALID,0,VALID,22.9147,VALID,333,VALID,0,
2011-02-14, 03:38:04,VALID,1007.14,VALID,0,VALID,104,VALID,0,VALID,22.8952,VALID,333,VALID,0,
2011-02-14, 03:39:04,VALID,1007.12,VALID,0,VALID,104,VALID,0,VALID,22.9147,VALID,333,VALID,0,
2011-02-14, 03:40:04,VALID,1007.12,VALID,0,VALID,104,VALID,0,VALID,22.8952,VALID,333,VALID,0,
2011-02-14, 03:41:04,VALID,1007.11,VALID,0,VALID,104,VALID,0,VALID,22.8952,VALID,333,VALID,0,
2011-02-14, 03:42:04,VALID,1007.11,VALID,0,VALID,104,VALID,0,VALID,22.874,VALID,333,VALID,0,
2011-02-14, 03:43:04,VALID,1007.1,VALID,0,VALID,104,VALID,0,VALID,22.8562,VALID,333,VALID,0,
2011-02-14, 03:44:04,VALID,1007.11,VALID,0,VALID,104,VALID,0,VALID,22.8562,VALID,333,VALID,0,
2011-02-14, 03:45:04,VALID,1007.07,VALID,0,VALID,104,VALID,0,VALID,22.8757,VALID,333,VALID,0,
2011-02-14, 03:46:04,VALID,1007.05,VALID,0,VALID,104,VALID,0,VALID,22.8562,VALID,333,VALID,0,
2011-02-14, 03:47:04,VALID,1007.04,VALID,0,VALID,104,VALID,0,VALID,22.8368,VALID,333,VALID,0,
2011-02-14, 03:48:04,VALID,1007.03,VALID,0,VALID,104,VALID,0,VALID,22.8562,VALID,333,VALID,0,
2011-02-14, 03:49:04,VALID,1007.03,VALID,0,VALID,104,VALID,0,VALID,22.8368,VALID,333,VALID,0,
2011-02-14, 03:50:04,VALID,1007.05,VALID,0,VALID,104,VALID,0,VALID,22.8368,VALID,333,VALID,0,